Location: ??????????
(41.2581°N, 22.8006°E)
Time: 15:29:23
(UTC+00:00)

SL-16 R/B - Pass Details

Date: 13 December 2025
Orbit: 841 x 844 km, 71.0° (Epoch: 19 January)

Event Time Altitude Azimuth Distance (km) Brightness Sun altitude
Rises 17:22:09 0° 197° (SSW) 3,381 5.7 -25.8°
Reaches altitude 10° 17:24:35 10° 195° (SSW) 2,451 4.9 -26.3°
Enters shadow 17:29:43 70° 154° (SSE) 894 2.1 -27.2°
